VTK503 UHMM-UHPP

Flight info

Callsign VTK503
Flight time N/A
Altitude 37000
Route OSKET5D OSKET A812 BAKEN BAKEN5P
Aircraft A319/M-SDE3FGHIRWY/LB1

Departure

Time N/A
Airport Sokol Airport (UHMM)

Arrival

Time 2026-05-05 00:20
Airport Yelizovo Airport (UHPP)
Time Latitude Longitude Altitude Speed Heading
2026-05-04 23:53 54.50041 157.16512 36479 ft 410 kts 156°
2026-05-04 23:53 54.47588 157.18979 36246 ft 407 kts 156°
2026-05-04 23:54 54.45137 157.21438 35240 ft 412 kts 156°
2026-05-04 23:54 54.42647 157.23926 34153 ft 413 kts 156°
2026-05-04 23:54 54.40193 157.26384 33432 ft 404 kts 156°
2026-05-04 23:54 54.37799 157.28790 32616 ft 394 kts 156°
2026-05-04 23:55 54.35463 157.31133 31824 ft 385 kts 156°
2026-05-04 23:55 54.33161 157.33433 31061 ft 380 kts 155°
2026-05-04 23:55 54.28648 157.37914 29587 ft 371 kts 155°
2026-05-04 23:56 54.26427 157.40117 28739 ft 368 kts 154°
2026-05-04 23:56 54.24220 157.42301 27925 ft 365 kts 154°
2026-05-04 23:56 54.22034 157.44464 27128 ft 362 kts 154°
2026-05-04 23:56 54.19865 157.46608 26360 ft 359 kts 153°
2026-05-04 23:57 54.17708 157.48739 25604 ft 357 kts 153°
2026-05-04 23:57 54.15566 157.50848 24877 ft 355 kts 153°
2026-05-04 23:57 54.13434 157.52944 24166 ft 352 kts 152°
2026-05-04 23:57 54.11324 157.55016 23472 ft 348 kts 152°
2026-05-04 23:58 54.09211 157.57097 22700 ft 345 kts 152°
2026-05-04 23:58 54.07147 157.59142 21895 ft 342 kts 152°
2026-05-04 23:58 54.05105 157.61167 21114 ft 338 kts 152°
2026-05-04 23:58 54.03082 157.63170 20354 ft 334 kts 152°
2026-05-04 23:59 54.01078 157.65150 19616 ft 331 kts 152°
2026-05-04 23:59 53.99094 157.67101 18890 ft 328 kts 152°
2026-05-04 23:59 53.97126 157.69032 18185 ft 326 kts 153°
2026-05-04 23:59 53.95170 157.70950 17421 ft 323 kts 153°
2026-05-05 00:00 53.93232 157.72847 16628 ft 320 kts 153°
2026-05-05 00:00 53.92609 157.73458 16378 ft 319 kts 153°
2026-05-05 00:00 53.89412 157.76592 15110 ft 314 kts 152°
2026-05-05 00:00 53.87531 157.78436 14373 ft 311 kts 152°
2026-05-05 00:01 53.85675 157.80252 13653 ft 306 kts 152°
2026-05-05 00:01 53.83850 157.82034 12876 ft 300 kts 152°
2026-05-05 00:01 53.82052 157.83783 12094 ft 296 kts 151°
2026-05-05 00:01 53.80292 157.85494 11307 ft 289 kts 151°
2026-05-05 00:02 53.78570 157.87171 10767 ft 278 kts 150°
2026-05-05 00:02 53.76976 157.88717 10625 ft 252 kts 150°
2026-05-05 00:02 53.75526 157.90110 10596 ft 229 kts 150°
2026-05-05 00:02 53.74219 157.91361 10609 ft 204 kts 150°
2026-05-05 00:03 53.73022 157.92504 10592 ft 191 kts 150°
2026-05-05 00:03 53.71874 157.93601 10604 ft 189 kts 149°
2026-05-05 00:03 53.70732 157.94695 10609 ft 188 kts 150°
2026-05-05 00:03 53.69603 157.95777 10610 ft 187 kts 150°
2026-05-05 00:04 53.68469 157.96864 10612 ft 187 kts 150°
2026-05-05 00:04 53.67348 157.97935 10611 ft 185 kts 150°
2026-05-05 00:04 53.66235 157.99014 10612 ft 185 kts 147°
2026-05-05 00:04 53.65236 158.00383 10608 ft 186 kts 140°
2026-05-05 00:05 53.64288 158.01861 10569 ft 187 kts 140°
2026-05-05 00:05 53.63333 158.03338 10361 ft 185 kts 140°
2026-05-05 00:05 53.62384 158.04799 10129 ft 184 kts 140°
2026-05-05 00:05 53.61439 158.06255 9867 ft 184 kts 139°
2026-05-05 00:06 53.60482 158.07728 9579 ft 184 kts 139°
2026-05-05 00:06 53.59856 158.08690 9376 ft 184 kts 139°
2026-05-05 00:06 53.58911 158.10141 9068 ft 183 kts 138°
2026-05-05 00:06 53.57975 158.11579 8775 ft 181 kts 138°
2026-05-05 00:07 53.57050 158.12999 8481 ft 179 kts 137°
2026-05-05 00:07 53.56134 158.14406 8289 ft 176 kts 137°
2026-05-05 00:07 53.55223 158.15804 8172 ft 178 kts 136°
2026-05-05 00:07 53.54306 158.17212 7935 ft 179 kts 137°
2026-05-05 00:08 53.53387 158.18620 7651 ft 179 kts 136°
2026-05-05 00:08 53.52452 158.20002 7360 ft 180 kts 141°
2026-05-05 00:08 53.51347 158.21019 7051 ft 184 kts 152°
2026-05-05 00:08 53.50162 158.21842 6741 ft 184 kts 151°
2026-05-05 00:09 53.48974 158.22679 6428 ft 186 kts 151°
2026-05-05 00:09 53.47777 158.23522 6119 ft 187 kts 150°
2026-05-05 00:09 53.46573 158.24371 5786 ft 189 kts 150°
2026-05-05 00:09 53.45353 158.25231 5450 ft 190 kts 150°
2026-05-05 00:10 53.44130 158.26091 5129 ft 191 kts 150°
2026-05-05 00:10 53.42900 158.26953 4805 ft 193 kts 150°
2026-05-05 00:10 53.42046 158.27553 4576 ft 194 kts 150°
2026-05-05 00:12 53.41481 158.27977 4415 ft 195 kts 149°
2026-05-05 00:13 53.40236 158.28877 4072 ft 194 kts 151°
2026-05-05 00:13 53.39007 158.29721 3752 ft 188 kts 151°
2026-05-05 00:13 53.37810 158.30527 3440 ft 182 kts 152°
2026-05-05 00:13 53.36695 158.31294 3248 ft 164 kts 150°
2026-05-05 00:14 53.35693 158.31990 3117 ft 147 kts 149°
2026-05-05 00:14 53.34806 158.32608 3007 ft 132 kts 148°
2026-05-05 00:14 53.33977 158.33189 2901 ft 127 kts 148°
2026-05-05 00:14 53.33172 158.33755 2782 ft 124 kts 148°
2026-05-05 00:15 53.32381 158.34309 2670 ft 123 kts 147°
2026-05-05 00:15 53.31597 158.34858 2593 ft 121 kts 148°
2026-05-05 00:15 53.30819 158.35403 2557 ft 122 kts 147°
2026-05-05 00:15 53.30038 158.35948 2467 ft 121 kts 147°
2026-05-05 00:16 53.29259 158.36492 2324 ft 122 kts 147°
2026-05-05 00:16 53.28477 158.37037 2159 ft 120 kts 149°
2026-05-05 00:16 53.27707 158.37574 1987 ft 120 kts 149°
2026-05-05 00:16 53.26947 158.38103 1842 ft 116 kts 150°
2026-05-05 00:17 53.26203 158.38621 1685 ft 116 kts 152°
2026-05-05 00:17 53.25462 158.39138 1525 ft 116 kts 153°
2026-05-05 00:17 53.24721 158.39654 1383 ft 116 kts 154°
2026-05-05 00:17 53.23964 158.40182 1237 ft 120 kts 153°
2026-05-05 00:18 53.23201 158.40713 1092 ft 118 kts 153°
2026-05-05 00:18 53.22450 158.41235 953 ft 115 kts 154°
2026-05-05 00:18 53.21703 158.41755 812 ft 118 kts 152°
2026-05-05 00:19 53.21351 158.42002 733 ft 126 kts 153°
2026-05-05 00:19 53.20549 158.42557 590 ft 122 kts 153°
2026-05-05 00:19 53.19771 158.43097 430 ft 122 kts 153°
2026-05-05 00:19 53.18982 158.43644 287 ft 123 kts 155°
2026-05-05 00:20 53.18197 158.44189 158 ft 121 kts 155°
2026-05-05 00:20 53.17467 158.44712 139 ft 97 kts 157°
2026-05-05 00:20 53.16988 158.45034 136 ft 47 kts 159°
2026-05-05 00:20 53.16777 158.45156 138 ft 24 kts 166°
2026-05-05 00:21 53.16734 158.45212 137 ft 4 kts 356°
2026-05-05 00:21 53.16783 158.45175 138 ft 10 kts 332°
2026-05-05 00:21 53.16853 158.45122 138 ft 12 kts 337°
2026-05-05 00:21 53.16937 158.45063 136 ft 14 kts 337°
2026-05-05 00:22 53.17025 158.45001 136 ft 13 kts 337°
2026-05-05 00:22 53.17117 158.44938 136 ft 16 kts 338°
2026-05-05 00:22 53.17234 158.44857 138 ft 20 kts 338°
2026-05-05 00:22 53.17375 158.44761 139 ft 24 kts 337°
2026-05-05 00:23 53.17534 158.44648 139 ft 25 kts 337°
2026-05-05 00:23 53.17566 158.44474 138 ft 20 kts 248°
2026-05-05 00:23 53.17507 158.44233 137 ft 25 kts 247°
2026-05-05 00:23 53.17426 158.43952 137 ft 29 kts 239°
2026-05-05 00:24 53.17326 158.43661 137 ft 28 kts 239°
2026-05-05 00:24 53.17229 158.43385 137 ft 27 kts 240°
2026-05-05 00:24 53.17139 158.43120 137 ft 26 kts 240°
2026-05-05 00:24 53.17032 158.42962 137 ft 18 kts 167°
2026-05-05 00:25 53.16928 158.43060 137 ft 17 kts 151°
2026-05-05 00:25 53.16857 158.43012 137 ft 9 kts 239°
2026-05-05 00:25 53.16845 158.42978 137 ft 0 kts 240°